User: anonymous   Login
Location: Clatteringshaws Loch
(55.0508°N, 4.2860°W)
Time: 08:27:30
(UTC+00:00)
Language:

Cosmos 2221 Rocket - Orbit

View from above orbital plane
View from above orbital plane
View from above satellite
View from above satellite

Ground track
Ground track

The orbit data is extracted from the following two-line orbital elements,

1 22237U 92080B   17023.17362953  .00000108  00000-0  11754-4 0  9995
2 22237  82.5109 252.6122 0018840 323.4139 183.9189 14.78299948302015
Epoch (UTC): 23 January 2017 04:10:01
Eccentricity: 0.0018840
inclination: 82.5109°
perigee height: 621 km
apogee height: 648 km
right ascension of ascending node: 252.6122°
argument of perigee: 323.4139°
revolutions per day: 14.78299948
mean anomaly at epoch: 183.9189°
orbit number at epoch: 30201

The dashed part of the orbit path shows where the satellite is in the earth's shadow,  

DLR